Weather History for Pittsburg, KS

Change the Weather History Date:

Thursday, February 28, 2013

  Actual Average (KJLN) Record (KJLN)
Temperature  
Mean Temperature 34 °F 44 °F  
Max Temperature 35 °F 55 °F 78 °F (1972)
Min Temperature 32 °F 33 °F 2 °F (1962)
Degree Days  
Heating Degree Days 32 21  
Month to date heating degree days 704  
Since 1 July heating degree days 3254  
Cooling Degree Days 0 0  
Month to date cooling degree days 1  
Year to date cooling degree days 1  
Moisture  
Dew Point 28 °F    
Average Humidity 79    
Maximum Humidity 86    
Minimum Humidity 72    
Precipitation  
Precipitation 0.00 in 0.10 in 1.52 in (1987)
Month to date precipitation 2.32  
Year to date precipitation 4.35  
Sea Level Pressure  
Sea Level Pressure 30.15 in    
Wind  
Wind Speed 8 mph (NNW)    
Max Wind Speed 13 mph    
Max Gust Speed 20 mph    
Visibility 9 miles    
Events      
T = Trace of Precipitation, MM = Missing Value Source: NWS Daily Summary

Daily Weather History Graph

Daily Weather History Graph

Search for Another Location

Airport:

Trip Planner

Search our weather history database for the weather conditions in past years. The results will help you decide how hot, cold, wet, or windy it might be!

Date:

Astronomy

Feb. 28, 2013 Rise Set
Actual Time 6:51 AM CST 6:12 PM CST
Civil Twilight 6:24 AM CST 6:38 PM CST
Nautical Twilight 5:54 AM CST 7:08 PM CST
Astronomical Twilight 5:24 AM CST 7:38 PM CST
Moon 9:34 PM CST 8:06 AM CST
Length of Visible Light 12h 13m
Length of Day
11h 20m
Waning Gibbous, 90% of the Moon is Illuminated
Feb 28
Waning Gibbous
Mar 4
Last Quarter
Mar 11
New
Mar 19
First Quarter
Mar 27
Full

Hourly Weather History & Observations

Time (CST) Temp. Windchill Dew Point Humidity Pressure Visibility Wind Dir Wind Speed Gust Speed Precip Events Conditions
12:15 AM 34.3 °F 29.2 °F 28.9 °F 81% 30.06 in 10.0 mi NW 5.8 mph - N/A   Clear
12:35 AM 32.9 °F 25.9 °F 28.2 °F 83% 30.06 in 10.0 mi NW 8.1 mph - N/A   Clear
12:55 AM 32.9 °F 26.7 °F 28.0 °F 82% 30.07 in 10.0 mi NW 6.9 mph - N/A   Clear
1:15 AM 32.9 °F 24.7 °F 28.2 °F 83% 30.07 in 10.0 mi NW 10.4 mph - N/A   Clear
1:35 AM 32.9 °F 26.7 °F 28.2 °F 83% 30.07 in 10.0 mi NW 6.9 mph - N/A   Clear
1:55 AM 32.9 °F 26.7 °F 28.8 °F 85% 30.07 in 10.0 mi NW 6.9 mph - N/A   Clear
2:15 AM 32.9 °F 27.5 °F 29.1 °F 86% 30.07 in 10.0 mi NW 5.8 mph - N/A   Clear
2:35 AM 32.9 °F 24.7 °F 29.1 °F 86% 30.07 in 10.0 mi NW 10.4 mph - N/A   Clear
2:55 AM 32.9 °F 25.9 °F 28.4 °F 84% 30.07 in 10.0 mi NW 8.1 mph - N/A   Clear
3:15 AM 32.9 °F 26.7 °F 28.6 °F 84% 30.08 in 10.0 mi NW 6.9 mph - N/A   Clear
3:55 AM 32.9 °F 25.9 °F 28.6 °F 84% 30.08 in 10.0 mi NW 8.1 mph - N/A   Overcast
4:15 AM 32.9 °F 27.5 °F 28.4 °F 84% 30.09 in 7.0 mi NW 5.8 mph - N/A   Overcast
4:35 AM 32.9 °F 25.9 °F 28.4 °F 84% 30.09 in 7.0 mi NW 8.1 mph - N/A   Overcast
4:55 AM 32.9 °F 25.3 °F 28.2 °F 83% 30.09 in 7.0 mi NNW 9.2 mph - N/A   Overcast
5:15 AM 32.9 °F 23.7 °F 27.7 °F 81% 30.09 in 7.0 mi NNW 12.7 mph 17.3 mph N/A   Overcast
5:35 AM 32.9 °F 24.1 °F 27.5 °F 81% 30.10 in 7.0 mi NNW 11.5 mph 18.4 mph N/A   Overcast
5:55 AM 32.9 °F 23.7 °F 27.5 °F 81% 30.11 in 7.0 mi NNW 12.7 mph 18.4 mph N/A   Overcast
6:15 AM 32.9 °F 24.1 °F 27.3 °F 80% 30.11 in 10.0 mi NNW 11.5 mph 18.4 mph N/A   Overcast
6:35 AM 32.9 °F 24.1 °F 27.3 °F 80% 30.11 in 10.0 mi NNW 11.5 mph 17.3 mph N/A   Overcast
6:55 AM 32.9 °F 24.1 °F 27.3 °F 80% 30.12 in 7.0 mi NNW 11.5 mph - N/A   Overcast
7:15 AM 32.9 °F 24.7 °F 27.3 °F 80% 30.12 in 7.0 mi NNW 10.4 mph - N/A   Overcast
7:35 AM 32.9 °F 23.7 °F 27.3 °F 80% 30.12 in 7.0 mi NNW 12.7 mph 17.3 mph N/A   Overcast
7:55 AM 33.8 °F 25.8 °F 27.9 °F 79% 30.13 in 10.0 mi NNW 10.4 mph 17.3 mph N/A   Overcast
8:15 AM 34.0 °F 26.6 °F 28.4 °F 80% 30.14 in 7.0 mi NNW 9.2 mph - N/A   Mostly Cloudy
8:35 AM 32.9 °F 26.7 °F 28.2 °F 83% 30.14 in 7.0 mi NW 6.9 mph - N/A   Mostly Cloudy
8:55 AM 33.1 °F 26.9 °F 28.2 °F 82% 30.15 in 7.0 mi NNW 6.9 mph - N/A   Mostly Cloudy
9:15 AM 34.7 °F 28.8 °F 29.3 °F 81% 30.16 in 7.0 mi NNW 6.9 mph - N/A   Mostly Cloudy
9:35 AM 35.6 °F 27.5 °F 28.4 °F 75% 30.16 in 10.0 mi North 11.5 mph 19.6 mph N/A   Mostly Cloudy
9:55 AM 35.6 °F 28.6 °F 27.7 °F 73% 30.16 in 10.0 mi North 9.2 mph 18.4 mph N/A   Mostly Cloudy
10:15 AM 35.6 °F 28.0 °F 27.9 °F 73% 30.16 in 10.0 mi North 10.4 mph 17.3 mph N/A   Mostly Cloudy
10:35 AM 35.6 °F 29.9 °F 27.9 °F 73% 30.17 in 10.0 mi North 6.9 mph 17.3 mph N/A   Mostly Cloudy
10:55 AM 35.6 °F 27.5 °F 27.9 °F 73% 30.18 in 10.0 mi NNW 11.5 mph 18.4 mph N/A   Overcast
11:15 AM 35.6 °F 28.6 °F 27.9 °F 73% 30.18 in 10.0 mi North 9.2 mph - N/A   Overcast
11:35 AM 35.6 °F 27.1 °F 27.7 °F 73% 30.18 in 10.0 mi NNW 12.7 mph - N/A   Overcast
11:55 AM 35.6 °F 28.0 °F 27.7 °F 73% 30.18 in 10.0 mi North 10.4 mph - N/A   Overcast
12:15 PM 35.6 °F 27.5 °F 27.7 °F 73% 30.18 in 10.0 mi NNW 11.5 mph - N/A   Overcast
12:35 PM 35.6 °F 28.0 °F 28.2 °F 75% 30.17 in 10.0 mi NNW 10.4 mph - N/A   Overcast
12:55 PM 35.6 °F 28.0 °F 28.4 °F 75% 30.18 in 10.0 mi NNW 10.4 mph - N/A   Overcast
1:15 PM 35.6 °F 29.2 °F 28.6 °F 76% 30.17 in 10.0 mi NNW 8.1 mph - N/A   Overcast
1:35 PM 35.6 °F 28.0 °F 28.0 °F 74% 30.17 in 10.0 mi NNW 10.4 mph - N/A   Overcast
1:55 PM 35.6 °F 29.9 °F 28.2 °F 75% 30.17 in 10.0 mi NNW 6.9 mph - N/A   Overcast
2:15 PM 35.6 °F 28.6 °F 28.0 °F 74% 30.17 in 10.0 mi North 9.2 mph - N/A   Overcast
2:35 PM 35.6 °F 28.0 °F 27.7 °F 73% 30.17 in 10.0 mi NNW 10.4 mph - N/A   Overcast
2:55 PM 35.6 °F 31.7 °F 27.3 °F 72% 30.17 in 10.0 mi North 4.6 mph - N/A   Mostly Cloudy
3:15 PM 35.6 °F 29.2 °F 27.5 °F 72% 30.18 in 10.0 mi NNW 8.1 mph - N/A   Overcast
3:35 PM 35.6 °F 32.8 °F 27.5 °F 72% 30.18 in 10.0 mi North 3.5 mph - N/A   Overcast
3:55 PM 35.6 °F 29.9 °F 27.7 °F 73% 30.18 in 10.0 mi NNW 6.9 mph - N/A   Overcast
4:15 PM 35.6 °F 29.2 °F 28.0 °F 74% 30.18 in 10.0 mi NNW 8.1 mph - N/A   Overcast
4:35 PM 35.6 °F 29.2 °F 28.4 °F 75% 30.19 in 10.0 mi NW 8.1 mph - N/A   Overcast
4:55 PM 35.6 °F 28.6 °F 29.1 °F 77% 30.19 in 10.0 mi NNW 9.2 mph - N/A   Overcast
5:15 PM 34.5 °F 28.6 °F 28.0 °F 77% 30.19 in 10.0 mi NNW 6.9 mph - N/A   Overcast
5:35 PM 33.1 °F 26.9 °F 26.6 °F 77% 30.19 in 10.0 mi NNW 6.9 mph - N/A   Overcast
5:55 PM 32.9 °F 27.5 °F 26.1 °F 76% 30.19 in 10.0 mi North 5.8 mph - N/A   Overcast
6:15 PM 32.9 °F 28.5 °F 25.9 °F 75% 30.19 in 10.0 mi North 4.6 mph - N/A   Overcast
6:35 PM 32.9 °F 27.5 °F 26.1 °F 76% 30.19 in 10.0 mi North 5.8 mph - N/A   Overcast
7:15 PM 32.9 °F 28.5 °F 26.4 °F 77% 30.19 in 10.0 mi NNW 4.6 mph - N/A   Overcast
7:35 PM 32.9 °F 29.8 °F 26.4 °F 77% 30.19 in 10.0 mi NNW 3.5 mph - N/A   Overcast
7:55 PM 32.9 °F 29.8 °F 26.8 °F 78% 30.19 in 10.0 mi NNW 3.5 mph - N/A   Overcast
8:15 PM 32.9 °F 28.5 °F 27.0 °F 79% 30.19 in 10.0 mi NNW 4.6 mph - N/A   Overcast
8:35 PM 32.9 °F 28.5 °F 27.3 °F 80% 30.19 in 10.0 mi North 4.6 mph - N/A   Mostly Cloudy
8:55 PM 32.9 °F 28.5 °F 27.3 °F 80% 30.19 in 10.0 mi NNW 4.6 mph - N/A   Mostly Cloudy
9:15 PM 32.9 °F 28.5 °F 27.5 °F 81% 30.20 in 10.0 mi NNW 4.6 mph - N/A   Mostly Cloudy
9:35 PM 32.9 °F 27.5 °F 27.9 °F 82% 30.21 in 10.0 mi NNW 5.8 mph - N/A   Overcast
9:55 PM 32.9 °F 28.5 °F 28.0 °F 82% 30.20 in 10.0 mi NNW 4.6 mph - N/A   Overcast
10:15 PM 32.9 °F 28.5 °F 28.0 °F 82% 30.20 in 10.0 mi NNW 4.6 mph - N/A   Overcast
10:35 PM 32.9 °F 29.8 °F 28.2 °F 83% 30.20 in 10.0 mi NW 3.5 mph - N/A   Overcast
10:55 PM 32.9 °F 28.5 °F 28.4 °F 84% 30.20 in 10.0 mi NW 4.6 mph - N/A   Overcast
11:15 PM 32.9 °F 26.7 °F 28.2 °F 83% 30.19 in 10.0 mi NNW 6.9 mph - N/A   Overcast
11:35 PM 32.9 °F 25.9 °F 27.7 °F 81% 30.19 in 10.0 mi NNW 8.1 mph - N/A   Overcast
11:55 PM 32.9 °F 25.9 °F 27.1 °F 79% 30.18 in 10.0 mi NNW 8.1 mph - N/A   Overcast